Weather in Zverinogolovskoe

Russia / Kurgan Oblast     54°27′39″N   64°51′21″E
temp.,
°C
wind,
m/s
gust,
m/s
humid.,
%
clouds,
%
prec.,
mm/h
press.,
hPa
HPBL,
m
6 march, sat
sat623:000sw91597100 2.7 1000930
02:00−1wnw81197100 1.1 1001633
05:00−8w5128899 1.4 1007305
08:00−13w47900 0.0 1009118
11:00−10wsw46880 0.0 1011263
14:00−8wsw47870 0.0 1012300
17:00−9wsw47890 0.0 1012224
20:00−14sw45890 0.0 101361
7 march, sun
sun723:00−15ssw45880 0.0 101464
02:00−15ssw458944 0.0 101378
05:00−14ssw349172 0.0 101371
08:00−12ssw2391100 0.0 101263
11:00−9sse2391100 0.1 1011250
14:00−7e4695100 1.1 1007311
17:00−6ne5896100 3.8 1004428
20:00−7nne61095100 2.3 1001372
8 march, mon
mon823:00−8n71294100 5.3 1001536
02:00−10nnw81491100 0.9 1003537
05:00−15wnw6129090 0.9 1008270
08:00−20w46960 0.0 101194
11:00−15wsw46916 0.0 1013257
14:00−13ssw588873 0.0 1014351
17:00−11ssw7128586 0.0 1013505
20:00−10ssw71490100 0.0 1013591
9 march, tue
tue923:00−10ssw7149199 0.1 1013431
02:00−9ssw7139199 0.0 1013432
05:00−9s8149399 0.1 1011458
08:00−8ssw91692100 0.8 1010651
11:00−6ssw91490100 0.8 1009716
14:00−5ssw91392100 0.1 1008756
17:00−5ssw91591100 0.7 1006878
20:00−4ssw91689100 0.1 1005895
10 march, wed
wed1023:00−7w51084100 0.3 1007237
02:00−12w458827 0.0 101079
05:00−14w228964 0.0 101120
08:00−15sw1189100 0.0 101020
11:00−10ssw2386100 0.0 1010224
14:00−8ssw3487100 0.0 1009374
17:00−9ssw2392100 0.0 100867
20:00−13sw3393100 0.0 100831